GFSFLT1_700_rhum_000.txt.gz
RH
28 29 30 28 33 42 46 47 47 49 55 55 53 53 54 46 49 48 41 40 45 50 50 52 56 56 51 52 53 54 56 58
27 30 28 35 37 41 46 48 46 44 54 60 59 60 53 48 55 54 46 39 42 46 44 47 54 62 68 65 58 55 54 56
30 30 32 35 46 47 44 45 52 60 64 64 66 68 65 63 67 59 54 44 46 47 42 39 45 57 63 65 70 72 72 64
38 38 41 50 58 59 59 62 65 69 76 81 80 76 74 72 71 68 66 54 50 48 43 42 48 58 63 68 83 88 86 82
44 53 55 61 64 64 64 64 67 71 72 73 74 78 80 76 76 68 54 53 53 52 49 49 63 78 82 90 84 94 91 92
55 58 62 65 68 66 65 70 72 68 74 77 79 80 81 71 60 55 53 51 49 46 44 41 43 50 60 89 95 98 99 99
63 64 64 65 66 61 64 70 72 75 80 83 86 80 62 56 51 47 43 38 32 26 21 19 19 28 42 56 81 96 97 98
63 63 64 70 64 69 74 78 80 83 84 81 69 59 56 50 42 27 18 17 16 15 12 13 20 26 34 46 82 98 94 96
63 67 73 74 76 79 82 86 91 96 69 60 58 54 48 36 20 21 16 10 9 11 24 34 46 61 70 96 92 97 95 98
74 78 81 86 95 96 96 93 83 71 66 63 55 43 24 23 24 15 10 9 14 36 66 87 91 88 96 98 98 96 98 98
83 87 94 94 90 86 93 90 82 77 72 55 32 26 34 32 28 23 16 16 36 71 89 95 100 93 93 81 76 99 96 94
80 84 87 86 86 93 91 78 77 63 50 39 34 38 38 32 21 15 14 37 68 92 94 94 97 95 97 93 93 98 97 90
86 84 88 94 70 70 82 84 75 47 37 42 45 38 22 15 13 12 30 64 92 87 93 97 96 96 95 93 95 96 94 74
88 93 92 89 84 85 89 80 64 46 62 47 30 22 17 18 18 43 70 99 94 95 96 97 96 94 96 96 95 89 48 21
70 66 70 80 93 96 89 63 57 83 60 35 24 20 24 41 58 70 96 100 98 99 97 97 98 99 95 88 53 30 20 16
75 73 72 79 87 97 95 83 66 33 25 21 18 24 50 72 86 89 93 96 98 98 96 96 96 94 82 56 33 22 19 16
70 91 74 94 97 100 94 48 32 21 22 27 43 62 67 90 97 98 97 96 96 97 97 94 88 63 38 27 23 18 15 14
91 95 100 96 92 64 26 17 17 22 32 54 76 88 83 100 100 98 96 96 95 94 88 66 42 32 25 22 20 20 19 17
98 100 98 64 27 17 15 17 17 37 58 62 77 94 99 99 96 94 88 66 38 28 29 28 29 29 29 31 31 28 25 23

GFSFLT1_700_rhum_003.txt.gz
RH
27 29 31 34 32 34 40 44 49 49 48 47 57 56 60 62 61 62 59 56 52 48 42 38 39 41 39 47 54 56 53 48
29 30 31 31 33 38 42 48 50 48 54 57 59 62 65 61 61 65 70 68 64 57 49 44 42 41 40 40 51 67 62 62
32 33 32 34 43 54 49 48 53 60 56 66 68 74 75 74 73 71 71 72 65 56 50 50 51 50 49 49 47 52 68 75
36 40 43 52 57 63 61 61 60 64 68 73 79 80 80 81 81 75 60 52 47 45 46 48 51 56 54 52 51 55 63 76
45 53 57 62 65 66 67 68 68 70 74 77 76 78 82 82 82 71 52 49 44 39 34 26 22 26 29 32 43 52 71 93
57 60 66 67 68 70 71 73 73 72 76 76 78 81 83 81 65 52 53 44 30 21 21 22 15 10 10 13 16 27 49 67
64 64 67 71 72 74 72 69 75 78 77 80 83 82 78 73 72 58 39 33 30 28 24 20 17 16 15 10 8 12 21 33
63 64 69 74 77 80 78 80 80 78 80 83 86 82 76 66 46 44 37 34 32 24 18 14 10 9 15 22 33 36 45 59
61 68 74 79 77 79 80 82 86 89 84 81 84 91 80 46 45 43 37 27 19 16 14 12 17 39 72 78 86 71 78 94
72 74 78 81 90 95 95 91 95 92 87 85 68 62 49 54 51 34 22 13 12 15 16 25 68 78 100 99 97 96 99 98
77 84 96 97 98 97 96 94 92 88 88 78 61 44 48 39 15 10 8 12 17 30 52 80 83 94 96 98 97 95 94 97
90 93 94 97 95 79 75 78 78 82 82 75 66 61 37 27 19 10 14 28 49 75 91 97 97 96 98 96 95 96 96 94
86 82 75 69 70 75 67 69 76 91 84 73 68 55 36 17 12 16 32 51 64 90 97 92 96 97 97 97 96 94 95 94
83 71 74 75 74 80 74 96 100 99 96 67 31 17 13 16 31 46 61 76 83 94 96 96 92 91 92 97 96 96 93 68
75 80 79 79 84 93 96 100 96 62 24 15 13 12 27 42 50 65 80 94 93 87 84 86 87 87 90 87 86 78 57 34
71 74 76 84 98 100 86 53 44 43 20 14 14 24 50 54 65 80 95 100 100 99 94 96 96 94 87 76 61 38 28 26
79 76 77 78 99 98 65 45 37 23 16 15 35 62 65 62 74 88 99 99 97 89 75 52 30 26 26 27 28 27 25 25
88 83 76 97 86 64 38 21 16 19 24 39 60 84 83 79 77 74 62 34 26 24 25 27 29 31 32 35 36 38 38 34
99 94 84 60 40 22 10 11 23 40 45 65 84 97 91 81 68 35 22 24 26 27 29 30 30 40 52 54 55 54 48 39

GFSFLT1_700_rhum_006.txt.gz
RH
26 28 31 33 35 39 42 45 48 52 51 50 55 54 51 62 60 56 59 66 64 62 49 40 38 40 42 43 42 44 44 42
29 30 32 34 39 41 56 45 48 52 51 56 58 58 57 59 62 67 75 74 71 61 52 48 47 48 47 45 47 49 47 51
32 33 34 34 35 39 51 50 50 50 59 60 63 67 71 75 77 79 79 77 77 67 51 47 43 34 28 24 23 25 29 36
35 37 38 41 50 56 60 60 59 62 61 64 68 72 79 81 80 81 83 78 64 57 44 33 28 25 24 23 22 18 16 22
43 47 54 56 59 61 63 65 66 66 67 69 73 76 78 80 82 86 82 62 56 40 33 30 27 21 18 16 14 16 12 10
55 58 60 61 64 68 67 66 68 68 71 74 77 80 87 92 82 71 66 59 47 44 34 24 18 12 10 10 10 11 12 14
61 62 63 65 68 68 67 68 73 80 81 88 91 94 94 69 55 54 53 54 54 46 38 24 14 11 10 10 12 13 12 18
60 62 67 69 71 68 74 92 92 92 97 95 97 84 66 73 68 65 58 60 52 42 26 11 8 9 11 14 18 32 36 39
64 69 72 76 83 88 88 94 98 96 87 61 60 61 62 68 68 70 60 52 39 28 11 8 8 15 29 50 80 81 94 95
64 69 73 75 77 78 81 75 65 56 56 57 57 53 54 66 71 65 60 42 18 12 11 21 36 51 72 87 91 95 97 98
76 80 84 91 83 71 69 67 66 65 64 58 65 76 84 83 75 44 24 14 14 22 37 59 74 92 92 80 84 97 96 94
93 82 85 72 68 69 66 64 66 80 79 84 97 91 45 23 21 18 14 24 40 55 72 78 92 88 96 97 97 95 95 94
99 90 86 76 72 69 71 95 100 98 98 86 44 44 36 25 16 18 38 48 61 74 90 88 96 98 96 95 96 96 97 97
87 90 92 88 87 97 98 98 100 75 52 48 40 25 18 13 18 44 58 58 70 86 100 100 100 96 97 97 97 97 97 91
98 98 94 89 99 87 83 83 78 63 49 31 14 10 16 27 52 69 70 74 99 99 99 99 97 95 91 90 84 78 64 51
85 87 78 100 94 74 83 58 29 19 13 9 8 20 36 57 78 83 79 74 71 63 46 31 25 24 25 26 28 32 29 26
85 85 100 97 74 60 39 26 18 10 7 8 17 40 61 88 94 89 73 55 31 20 22 24 25 28 27 29 29 35 44 42
82 80 98 84 65 32 22 18 14 9 8 11 30 55 92 95 91 70 30 17 18 22 24 25 27 28 26 36 39 40 45 49
82 94 93 51 30 24 20 17 17 17 17 28 58 76 100 96 75 24 17 24 26 26 22 24 36 53 55 61 63 65 64 62

GFSFLT1_700_rhum_012.txt.gz
RH
48 59 66 73 76 80 89 95 64 94 70 48 62 62 57 64 59 66 69 67 67 70 74 77 83 78 73 67 58 54 43 36
53 66 70 76 77 76 68 64 71 83 73 60 52 55 65 63 62 71 71 70 72 78 78 81 70 55 56 55 58 50 39 34
62 65 64 63 33 37 52 53 50 51 59 59 61 63 61 65 68 71 81 84 89 88 89 80 72 50 46 50 50 46 45 39
58 62 55 43 40 40 47 54 58 60 61 69 64 62 61 66 79 97 93 92 96 65 55 60 51 52 54 53 53 54 51 47
69 43 40 45 50 56 57 57 59 62 64 62 62 64 71 85 92 94 64 53 54 55 58 57 57 58 61 63 59 57 57 50
63 51 51 50 54 57 58 60 62 64 64 64 67 78 85 81 65 56 55 45 58 66 66 64 63 66 66 68 66 61 56 51
65 60 62 53 54 56 58 65 71 77 78 78 79 75 57 50 51 49 51 61 66 67 70 64 50 47 42 38 28 26 23 20
84 88 89 89 74 62 54 53 73 79 78 75 63 58 63 68 64 62 62 61 60 58 51 41 36 32 25 17 16 24 31 51
80 78 86 89 96 77 73 52 55 67 72 69 69 72 69 74 58 53 57 56 44 37 30 11 8 8 9 13 34 51 74 77
82 94 93 91 95 83 71 79 80 78 71 76 75 69 66 60 57 58 45 25 13 8 7 6 10 16 38 46 77 98 87 91
86 86 86 90 78 75 86 86 93 98 100 97 86 73 59 55 46 27 13 9 8 5 6 9 29 70 83 93 96 98 96 99
67 89 97 93 93 78 88 87 98 100 86 90 72 51 44 36 20 12 11 9 6 8 18 43 62 68 73 92 100 98 99 97
77 78 76 83 88 90 82 75 76 76 91 80 51 41 33 18 15 14 12 10 9 15 43 65 67 64 46 42 40 39 42 47
78 79 76 67 68 65 62 74 78 84 83 73 53 51 35 34 24 20 14 15 25 57 74 65 33 16 16 18 23 21 18 28
90 78 66 56 46 49 61 79 94 96 98 91 64 56 46 45 44 30 29 52 69 80 65 27 21 27 39 47 38 27 27 29
93 73 52 38 35 61 84 93 96 88 86 97 85 94 87 56 56 55 44 77 87 87 72 53 59 62 89 63 36 40 53 50
80 47 30 38 64 96 98 95 99 84 75 95 93 84 97 97 89 42 70 92 92 96 78 79 79 70 72 53 52 54 56 58
41 32 81 100 93 78 86 94 96 80 72 98 71 82 98 89 53 32 74 89 94 81 91 98 72 80 82 64 59 69 71 71
33 86 89 95 70 87 85 71 60 76 94 95 61 88 76 95 51 47 64 95 90 85 97 93 86 80 71 74 72 68 76 77